• In Hungary
  • List of Countries
  • For 7 days
  • Water Temperature
  • Satellite Maps
  • Weather Map
  • News
  • Weather Widgets
  • user-avatar
    Login

    Hourly Weather Miglakasimahi

    Today, 23 September, Sunday

    Time Temperature Precipitation Wind Pressure Humidity
    00:00 +14°C° 0 mm 2 mps 661 mmHg 79%
    01:00 +14°C° 0 mm 2 mps 661 mmHg 78%
    02:00 +14°C° 0 mm 2 mps 661 mmHg 78%
    03:00 +13°C° 0 mm 1 mps 661 mmHg 78%
    04:00 +13°C° 0 mm 1 mps 661 mmHg 78%
    05:00 +13°C° 0 mm 1 mps 661 mmHg 78%
    06:00 +13°C° 0 mm 1 mps 661 mmHg 79%
    07:00 +15°C° 0.1 mm 2 mps 661 mmHg 75%
    08:00 +16°C° 0.1 mm 2 mps 661 mmHg 71%
    09:00 +18°C° 0 mm 3 mps 662 mmHg 67%
    10:00 +18°C° 0.1 mm 3 mps 662 mmHg 65%
    11:00 +19°C° 0.1 mm 3 mps 662 mmHg 63%
    12:00 +20°C° 0.1 mm 4 mps 662 mmHg 62%
    13:00 +19°C° 0.4 mm 4 mps 662 mmHg 64%
    14:00 +19°C° 0.4 mm 4 mps 661 mmHg 66%
    15:00 +19°C° 0.4 mm 4 mps 661 mmHg 68%
    16:00 +18°C° 0.6 mm 3 mps 661 mmHg 75%
    17:00 +16°C° 0.6 mm 3 mps 661 mmHg 81%
    18:00 +15°C° 0.6 mm 2 mps 660 mmHg 88%
    19:00 +15°C° 0.1 mm 2 mps 660 mmHg 87%
    20:00 +15°C° 0.1 mm 2 mps 661 mmHg 85%
    21:00 +14°C° 0.1 mm 2 mps 661 mmHg 84%
    22:00 +14°C° 0 mm 2 mps 661 mmHg 82%
    23:00 +14°C° 0 mm 2 mps 660 mmHg 80%

    Tomorrow, 24 September, Monday

    Time Temperature Precipitation Wind Pressure Humidity
    00:00 +14°C° 0 mm 2 mps 660 mmHg 77%
    01:00 +13°C° 0 mm 2 mps 660 mmHg 76%
    02:00 +13°C° 0 mm 2 mps 660 mmHg 74%
    03:00 +13°C° 0 mm 2 mps 660 mmHg 72%
    04:00 +13°C° 0 mm 2 mps 661 mmHg 72%
    05:00 +13°C° 0 mm 2 mps 661 mmHg 71%
    06:00 +13°C° 0 mm 2 mps 661 mmHg 71%
    07:00 +15°C° 0 mm 2 mps 661 mmHg 64%
    08:00 +17°C° 0 mm 2 mps 662 mmHg 56%
    09:00 +19°C° 0 mm 2 mps 663 mmHg 49%
    10:00 +20°C° 0 mm 2 mps 663 mmHg 48%
    11:00 +20°C° 0 mm 3 mps 663 mmHg 46%
    12:00 +21°C° 0 mm 3 mps 663 mmHg 44%
    13:00 +21°C° 0 mm 3 mps 663 mmHg 47%
    14:00 +21°C° 0 mm 3 mps 663 mmHg 51%
    15:00 +20°C° 0 mm 2 mps 663 mmHg 54%
    16:00 +19°C° 0 mm 2 mps 662 mmHg 61%
    17:00 +17°C° 0 mm 2 mps 662 mmHg 69%
    18:00 +16°C° 0 mm 2 mps 662 mmHg 77%
    19:00 +15°C° 0 mm 2 mps 662 mmHg 77%
    20:00 +15°C° 0 mm 2 mps 662 mmHg 77%
    21:00 +15°C° 0 mm 2 mps 662 mmHg 78%
    22:00 +14°C° 0 mm 2 mps 661 mmHg 76%
    23:00 +14°C° 0 mm 2 mps 661 mmHg 74%

    Day after tomorrow, 25 September, Tuesday

    Time Temperature Precipitation Wind Pressure Humidity
    00:00 +14°C° 0 mm 2 mps 661 mmHg 71%
    01:00 +13°C° 0 mm 3 mps 660 mmHg 69%
    02:00 +13°C° 0 mm 3 mps 660 mmHg 67%
    03:00 +13°C° 0 mm 3 mps 660 mmHg 64%
    04:00 +13°C° 0 mm 3 mps 659 mmHg 63%
    05:00 +13°C° 0 mm 3 mps 659 mmHg 61%
    06:00 +13°C° 0 mm 3 mps 659 mmHg 60%
    07:00 +17°C° 0 mm 3 mps 659 mmHg 53%
    08:00 +19°C° 0 mm 3 mps 660 mmHg 47%
    09:00 +22°C° 0 mm 3 mps 660 mmHg 41%
    10:00 +24°C° 0 mm 3 mps 660 mmHg 40%
    11:00 +25°C° 0 mm 3 mps 660 mmHg 40%
    12:00 +26°C° 0 mm 3 mps 660 mmHg 40%
    13:00 +25°C° 0 mm 3 mps 659 mmHg 43%
    14:00 +25°C° 0 mm 3 mps 659 mmHg 46%
    15:00 +25°C° 0 mm 3 mps 659 mmHg 49%
    16:00 +21°C° 0 mm 2 mps 658 mmHg 59%
    17:00 +19°C° 0 mm 2 mps 658 mmHg 69%
    18:00 +18°C° 0 mm 1 mps 658 mmHg 79%
    19:00 +18°C° 0 mm 1 mps 658 mmHg 79%
    20:00 +18°C° 0 mm 1 mps 658 mmHg 79%
    21:00 +17°C° 0 mm 2 mps 659 mmHg 79%
    22:00 +16°C° 0 mm 2 mps 659 mmHg 78%
    23:00 +16°C° 0 mm 2 mps 659 mmHg 77%

    26 September, Wednesday

    Time Temperature Precipitation Wind Pressure Humidity
    00:00 +16°C° 0 mm 2 mps 659 mmHg 77%
    01:00 +15°C° 0 mm 2 mps 659 mmHg 78%
    02:00 +15°C° 0 mm 2 mps 659 mmHg 79%
    03:00 +15°C° 0 mm 2 mps 659 mmHg 80%
    04:00 +13°C° 0 mm 3 mps 659 mmHg 83%
    05:00 +12°C° 0 mm 3 mps 659 mmHg 86%
    06:00 +12°C° 0 mm 4 mps 660 mmHg 88%
    07:00 +13°C° 0 mm 4 mps 660 mmHg 83%
    08:00 +14°C° 0 mm 5 mps 661 mmHg 78%
    09:00 +16°C° 0 mm 5 mps 662 mmHg 73%
    10:00 +15°C° 0 mm 5 mps 662 mmHg 73%
    11:00 +15°C° 0 mm 5 mps 662 mmHg 74%
    12:00 +14°C° 0 mm 5 mps 662 mmHg 75%
    13:00 +14°C° 0.1 mm 5 mps 662 mmHg 77%
    14:00 +13°C° 0.1 mm 5 mps 662 mmHg 79%
    15:00 +13°C° 0.1 mm 5 mps 662 mmHg 81%
    16:00 +12°C° 0 mm 4 mps 662 mmHg 84%
    17:00 +11°C° 0 mm 4 mps 662 mmHg 86%
    18:00 +10°C° 0 mm 4 mps 662 mmHg 89%
    19:00 +10°C° 0 mm 3 mps 663 mmHg 89%
    20:00 +10°C° 0 mm 3 mps 663 mmHg 89%
    21:00 +9°C° 0 mm 3 mps 663 mmHg 89%
    22:00 +9°C° 0 mm 3 mps 663 mmHg 89%
    23:00 +9°C° 0 mm 3 mps 663 mmHg 89%

    27 September, Thursday

    Time Temperature Precipitation Wind Pressure Humidity
    00:00 +9°C° 0 mm 2 mps 663 mmHg 89%
    01:00 +9°C° 0 mm 2 mps 663 mmHg 89%
    02:00 +8°C° 0 mm 3 mps 663 mmHg 90%
    03:00 +8°C° 0 mm 3 mps 663 mmHg 90%
    04:00 +8°C° 0 mm 3 mps 663 mmHg 90%
    05:00 +8°C° 0 mm 3 mps 663 mmHg 90%
    06:00 +8°C° 0 mm 3 mps 663 mmHg 90%
    07:00 +10°C° 0 mm 3 mps 663 mmHg 82%
    08:00 +11°C° 0 mm 3 mps 664 mmHg 75%
    09:00 +13°C° 0 mm 3 mps 664 mmHg 68%
    10:00 +14°C° 0 mm 3 mps 664 mmHg 65%
    11:00 +14°C° 0 mm 3 mps 664 mmHg 62%
    12:00 +16°C° 0 mm 3 mps 665 mmHg 60%
    13:00 +16°C° 0 mm 3 mps 664 mmHg 61%
    14:00 +16°C° 0 mm 3 mps 664 mmHg 62%
    15:00 +16°C° 0 mm 3 mps 664 mmHg 64%
    16:00 +14°C° 0 mm 2 mps 663 mmHg 71%
    17:00 +13°C° 0 mm 2 mps 663 mmHg 79%
    18:00 +11°C° 0 mm 1 mps 663 mmHg 86%
    19:00 +11°C° 0 mm 1 mps 663 mmHg 86%
    20:00 +11°C° 0 mm 1 mps 663 mmHg 85%
    21:00 +11°C° 0 mm 1 mps 664 mmHg 85%
    22:00 +11°C° 0 mm 1 mps 663 mmHg 83%
    23:00 +11°C° 0 mm 1 mps 663 mmHg 82%

    28 September, Friday

    Time Temperature Precipitation Wind Pressure Humidity
    00:00 +11°C° 0 mm 1 mps 663 mmHg 81%
    01:00 +11°C° 0 mm 1 mps 663 mmHg 80%
    02:00 +10°C° 0 mm 1 mps 663 mmHg 79%
    03:00 +10°C° 0 mm 1 mps 663 mmHg 78%
    04:00 +10°C° 0 mm 1 mps 663 mmHg 77%
    05:00 +10°C° 0 mm 1 mps 663 mmHg 77%
    06:00 +10°C° 0 mm 1 mps 663 mmHg 76%
    07:00 +12°C° 0 mm 1 mps 663 mmHg 70%
    08:00 +15°C° 0 mm 2 mps 664 mmHg 63%
    09:00 +17°C° 0 mm 2 mps 665 mmHg 56%
    10:00 +18°C° 0 mm 3 mps 664 mmHg 56%
    11:00 +19°C° 0 mm 3 mps 664 mmHg 55%
    12:00 +20°C° 0 mm 4 mps 664 mmHg 54%
    13:00 +20°C° 0 mm 4 mps 664 mmHg 57%
    14:00 +19°C° 0 mm 4 mps 664 mmHg 59%
    15:00 +19°C° 0 mm 4 mps 663 mmHg 62%
    16:00 +18°C° 0 mm 3 mps 663 mmHg 70%
    17:00 +16°C° 0 mm 3 mps 662 mmHg 78%
    18:00 +13°C° 0 mm 3 mps 662 mmHg 87%
    19:00 +13°C° 0 mm 3 mps 662 mmHg 84%
    20:00 +13°C° 0 mm 3 mps 662 mmHg 81%
    21:00 +13°C° 0 mm 3 mps 662 mmHg 79%
    22:00 +13°C° 0 mm 3 mps 662 mmHg 74%
    23:00 +13°C° 0 mm 3 mps 661 mmHg 70%
    Show more